Retour au catalogue

SATCOM 3 DEB

LostHEO
NORAD 32991·DEBRIS·🇺🇸 United States

Lancé Dec 7, 1979 depuis Cape Canaveral Space Force Station

Loading…

Prochains Passages (prochaines 24 heures)

TLE

PériméSource: Space-Track

Époque: Nov 1, 2023, 05:31 UTC

1 32991U 79101S   23305.22992920 -.00000148  00000-0  00000+0 0  9993
2 32991   8.6809 284.6768 4617084  93.1878 356.2073  1.79808234105514

Suivez SATCOM 3 DEB en temps réel avec AllMySat

Download on the App Store